FW8819 Weather Reports


Display with metric or nautical units.
time (UTC)temp
F
wind
direction
speed
MPH
gust
MPH
rain 1hr
in
rain 24hr
in
rain mn
in
humidity
%
barometer
mb
20260505180514 34 84 4.0 9.0 0.01 0.23 0.12 93 1014.6
20260505180037 34 82 6.0 10.0 0.01 0.23 0.12 93 1014.7
20260505175515 34 58 6.0 10.0 0.00 0.22 0.11 93 1014.8
20260505175020 34 75 4.0 11.0 0.00 0.22 0.11 93 1014.8
20260505174540 34 63 6.0 11.0 0.00 0.22 0.11 93 1014.8
20260505174016 34 58 6.0 11.0 0.00 0.22 0.11 93 1014.9
20260505173513 34 79 6.0 10.0 0.00 0.22 0.11 93 1014.8
20260505173054 34 78 6.0 10.0 0.00 0.22 0.11 93 1014.9
20260505172513 34 82 6.0 10.0 0.00 0.22 0.11 94 1014.9
20260505172025 34 90 6.0 10.0 0.01 0.22 0.11 94 1014.9
20260505171539 34 89 4.0 10.0 0.01 0.22 0.11 94 1015.0
20260505171016 34 77 6.0 10.0 0.01 0.22 0.11 94 1014.9
20260505170519 34 79 6.0 10.0 0.01 0.22 0.11 94 1014.8
20260505170034 33 73 6.0 9.0 0.01 0.22 0.11 94 1015.0
20260505165514 34 52 5.0 8.0 0.01 0.22 0.11 94 1015.0
20260505165014 34 44 4.0 8.0 0.01 0.22 0.11 94 1015.1
20260505164537 34 54 5.0 7.0 0.01 0.22 0.11 94 1015.2
20260505164013 33 49 3.0 8.0 0.01 0.22 0.11 94 1015.3
20260505163516 33 40 3.0 8.0 0.01 0.22 0.11 94 1015.4
20260505163035 34 2 4.0 9.0 0.01 0.22 0.11 94 1015.4
20260505162514 34 354 4.0 9.0 0.01 0.22 0.11 94 1015.4
20260505162016 34 357 2.0 8.0 0.00 0.21 0.10 94 1015.3
20260505161532 34 359 4.0 8.0 0.00 0.21 0.10 94 1015.3
20260505161013 33 3 4.0 9.0 0.01 0.21 0.10 94 1015.4
20260505160514 33 349 5.0 9.0 0.01 0.21 0.10 94 1015.4
20260505153034 33 17 7.0 10.0 0.01 0.21 0.10 94 1015.4
20260505152516 33 11 6.0 12.0 0.01 0.21 0.10 94 1015.5
20260505152020 33 6 6.0 13.0 0.01 0.21 0.10 93 1015.6
20260505151533 33 10 7.0 13.0 0.00 0.20 0.09 93 1015.6
20260505151015 33 8 7.0 13.0 0.01 0.20 0.09 93 1015.5
20260505150522 33 6 8.0 12.0 0.01 0.20 0.09 94 1015.5
20260505140522 33 2 6.0 12.0 0.00 0.19 0.08 93 1015.8
20260505125013 33 355 10.0 22.0 0.02 0.19 0.08 93 1014.4
20260505124533 33 10 15.0 22.0 0.02 0.19 0.08 93 1014.2
20260505124016 33 349 11.0 19.0 0.02 0.19 0.08 93 1014.1
20260505123516 33 351 10.0 19.0 0.03 0.19 0.08 93 1014.1
20260505123046 34 325 12.0 20.0 0.03 0.18 0.07 93 1014.0
20260505122518 34 34 14.0 20.0 0.04 0.18 0.07 93 1014.0
20260505122014 34 344 13.0 19.0 0.05 0.18 0.07 93 1013.9
20260505121535 34 355 13.0 19.0 0.05 0.18 0.07 93 1014.0
20260505121017 34 328 13.0 19.0 0.05 0.18 0.07 93 1014.0
20260505120515 35 8 12.0 19.0 0.06 0.18 0.07 92 1014.0
20260505120046 35 6 12.0 19.0 0.05 0.17 0.06 92 1014.0
20260505115513 35 4 13.0 20.0 0.05 0.17 0.06 93 1014.0
20260505115014 36 5 10.0 20.0 0.05 0.17 0.06 92 1013.9
20260505114545 36 349 13.0 20.0 0.05 0.17 0.06 93 1013.8
20260505114016 36 326 11.0 20.0 0.05 0.17 0.06 92 1013.8
20260505113513 36 345 13.0 21.0 0.04 0.16 0.05 92 1013.8
20260505113031 37 23 14.0 21.0 0.03 0.15 0.04 92 1013.7
20260505112515 37 347 11.0 19.0 0.02 0.14 0.03 92 1013.6
20260505112014 38 354 11.0 17.0 0.01 0.13 0.02 92 1013.6
20260505111533 38 12 9.0 16.0 0.01 0.13 0.02 92 1013.6
20260505111014 38 22 9.0 16.0 0.01 0.13 0.02 92 1013.5
20260505110515 38 352 11.0 17.0 0.00 0.12 0.01 92 1013.4
20260505102017 43 344 4.0 13.0 0.00 0.12 0.01 92 1012.6
20260505101538 43 8 2.0 4.0 0.00 0.12 0.01 91 1012.1
20260505101015 43 344 1.0 5.0 0.00 0.12 0.01 91 1012.3
20260505100516 43 350 1.0 7.0 0.00 0.12 0.01 91 1012.1
20260505100034 43 340 1.0 8.0 0.00 0.12 0.01 91 1012.2
20260505095514 43 360 4.0 10.0 0.00 0.12 0.01 90 1012.2
20260505095017 43 343 6.0 14.0 0.00 0.12 0.01 90 1012.3
20260505094534 43 354 5.0 14.0 0.00 0.12 0.01 90 1012.3
20260505094015 43 350 7.0 13.0 0.00 0.12 0.01 89 1012.2
20260505093514 43 44 8.0 11.0 0.00 0.12 0.01 89 1011.8
20260505093040 43 51 7.0 11.0 0.00 0.12 0.01 89 1011.9
20260505092515 43 73 7.0 11.0 0.00 0.12 0.01 89 1011.7
20260505092015 43 91 4.0 7.0 0.00 0.12 0.01 89 1012.0
20260505091540 43 101 3.0 7.0 0.00 0.12 0.01 88 1012.2
20260505091016 43 83 4.0 7.0 0.00 0.12 0.01 88 1012.1
20260505090514 43 113 4.0 7.0 0.00 0.12 0.01 88 1012.1
20260505090045 43 100 4.0 7.0 0.00 0.12 0.01 88 1012.1
20260505085515 43 82 4.0 7.0 0.00 0.12 0.01 87 1012.1
20260505085016 43 99 3.0 7.0 0.00 0.12 0.01 87 1012.0
20260505084532 43 98 4.0 8.0 0.00 0.12 0.01 87 1012.0
20260505084014 43 117 4.0 9.0 0.00 0.12 0.01 87 1011.9
20260505083517 43 105 5.0 12.0 0.00 0.12 0.01 87 1011.9
20260505083034 43 145 8.0 12.0 0.00 0.12 0.01 87 1011.8
20260505082517 43 159 6.0 9.0 0.00 0.12 0.01 88 1012.0
20260505082017 43 132 4.0 8.0 0.00 0.12 0.01 88 1012.1
20260505081542 43 96 3.0 6.0 0.00 0.12 0.01 88 1012.4
20260505081015 43 114 2.0 6.0 0.00 0.12 0.01 89 1012.6
20260505080516 43 152 3.0 6.0 0.00 0.12 0.01 89 1012.5
20260505080046 43 132 3.0 6.0 0.00 0.12 0.01 89 1012.7
20260505075516 43 116 3.0 5.0 0.00 0.12 0.01 89 1012.6
20260505075016 43 119 2.0 5.0 0.00 0.12 0.01 89 1012.7
20260505074535 43 127 2.0 6.0 0.00 0.12 0.01 90 1012.8
20260505074015 43 132 3.0 9.0 0.01 0.12 0.01 90 1012.9
20260505073514 43 139 4.0 9.0 0.01 0.12 0.01 90 1013.0
20260505073045 43 174 5.0 12.0 0.01 0.12 0.01 90 1013.1
20260505072512 43 156 9.0 12.0 0.01 0.12 0.01 90 1013.2
20260505072016 43 150 6.0 11.0 0.01 0.12 0.01 91 1013.1
20260505071534 43 146 3.0 8.0 0.01 0.12 0.01 91 1013.4
20260505071017 43 135 5.0 10.0 0.01 0.12 0.01 91 1013.3
20260505070517 43 183 6.0 10.0 0.01 0.12 0.01 91 1013.4
20260505070034 43 167 7.0 10.0 0.01 0.12 0.01 91 1013.5
20260505065515 43 159 7.0 10.0 0.01 0.12 0.01 91 1013.5
20260505065013 43 158 6.0 9.0 0.01 0.12 0.01 91 1013.6
20260505064531 43 198 4.0 7.0 0.01 0.12 0.01 91 1013.9
20260505064016 43 206 4.0 7.0 0.00 0.11 0.00 91 1013.9
20260505063520 43 185 1.0 3.0 0.00 0.11 0.00 91 1013.8
20260505063036 43 185 0.0 2.0 0.00 0.11 0.00 91 1013.8
20260505062515 43 0 0.0 2.0 0.00 0.11 0.00 91 1013.8
20260505062014 43 185 0.0 3.0 0.00 0.11 0.00 91 1013.8
20260505061535 43 0 0.0 4.0 0.01 0.11 0.00 91 1013.8
20260505061015 43 185 2.0 4.0 0.01 0.11 0.00 91 1013.7
20260505060514 43 185 1.0 4.0 0.02 0.11 0.00 91 1013.8
20260505060036 43 185 1.0 4.0 0.02 0.11 0.00 91 1013.7
20260505055518 43 0 1.0 4.0 0.03 0.11 0.11 91 1013.8
20260505055017 43 185 2.0 4.0 0.03 0.11 0.11 91 1013.7
20260505054535 43 207 2.0 4.0 0.04 0.11 0.11 91 1013.9
20260505054017 43 212 2.0 4.0 0.05 0.11 0.11 91 1013.7
20260505053513 43 186 1.0 4.0 0.05 0.11 0.11 91 1013.6
20260505053034 43 121 2.0 5.0 0.05 0.11 0.11 91 1013.5
20260505052520 43 125 2.0 5.0 0.06 0.11 0.11 91 1013.6
20260505052018 43 124 2.0 4.0 0.06 0.11 0.11 91 1013.6
20260505051536 43 43 0.0 4.0 0.05 0.10 0.10 90 1013.9
20260505051015 43 351 2.0 6.0 0.05 0.10 0.10 90 1014.2
20260505050516 43 342 3.0 9.0 0.04 0.09 0.09 90 1014.4
20260505050109 43 345 4.0 9.0 0.04 0.09 0.09 90 1014.4
20260505041548 45 356 1.0 4.0 0.05 0.05 0.05 87 1014.2
20260505041014 45 356 2.0 4.0 0.05 0.05 0.05 87 1014.1
20260505040516 45 306 1.0 3.0 0.05 0.05 0.05 86 1014.0
20260505040031 45 0 0.0 2.0 0.05 0.05 0.05 85 1014.0
20260505035515 45 0 0.0 2.0 0.05 0.05 0.05 85 1013.8
20260505035014 45 254 1.0 2.0 0.04 0.04 0.04 84 1013.8
20260505034532 45 254 0.0 2.0 0.04 0.04 0.04 84 1013.9
20260505034015 46 0 0.0 6.0 0.03 0.03 0.03 84 1013.8
20260505033513 46 254 1.0 6.0 0.02 0.02 0.02 83 1014.0
20260505033037 46 274 3.0 6.0 0.02 0.02 0.02 82 1014.0
20260505032516 47 269 2.0 5.0 0.01 0.01 0.01 81 1013.8
20260505032014 47 240 1.0 4.0 0.01 0.01 0.01 80 1013.8
20260505031540 47 243 2.0 4.0 0.00 0.00 0.00 79 1013.7
20260505031013 47 205 1.0 4.0 0.00 0.00 0.00 78 1013.8
20260505030513 47 205 2.0 4.0 0.00 0.00 0.00 77 1013.6
20260505030037 47 214 2.0 4.0 0.00 0.00 0.00 77 1013.5
20260505025517 47 224 2.0 4.0 0.00 0.00 0.00 77 1013.4
20260505025018 47 172 1.0 4.0 0.00 0.00 0.00 76 1013.4
20260505024531 47 172 2.0 4.0 0.00 0.00 0.00 76 1013.2
20260505024015 47 238 1.0 5.0 0.00 0.00 0.00 75 1013.1
20260505023516 47 238 2.0 5.0 0.00 0.00 0.00 74 1013.1
20260505023039 48 231 2.0 5.0 0.00 0.00 0.00 73 1013.0
20260505022515 48 269 1.0 4.0 0.00 0.00 0.00 71 1012.9
20260505022016 48 0 0.0 4.0 0.00 0.00 0.00 70 1012.8
20260505021534 49 269 2.0 4.0 0.00 0.00 0.00 68 1012.9
20260505021013 49 274 1.0 3.0 0.00 0.00 0.00 69 1012.8
20260505020515 49 311 0.0 3.0 0.00 0.00 0.00 67 1012.8
20260505020036 49 311 1.0 3.0 0.00 0.00 0.00 66 1012.9
20260505015517 49 20 0.0 3.0 0.00 0.00 0.00 68 1013.0
20260505015014 49 23 1.0 3.0 0.00 0.00 0.00 66 1012.9
20260505014549 49 20 1.0 3.0 0.00 0.00 0.00 65 1012.9
20260505014013 50 0 0.0 5.0 0.00 0.00 0.00 65 1012.5
20260505013513 50 0 0.0 7.0 0.00 0.00 0.00 66 1012.3
20260505013036 50 357 2.0 8.0 0.00 0.00 0.00 65 1012.6
20260505012515 51 347 4.0 8.0 0.00 0.00 0.00 64 1012.8
20260505012013 51 354 4.0 8.0 0.00 0.00 0.00 62 1012.7
20260505011533 51 28 2.0 9.0 0.00 0.00 0.00 59 1012.7
20260505011019 51 11 4.0 13.0 0.00 0.00 0.00 58 1012.8
20260505010515 52 351 6.0 13.0 0.00 0.00 0.00 58 1012.6
20260505010036 52 357 4.0 20.0 0.00 0.00 0.00 57 1012.7
20260505005514 53 352 12.0 20.0 0.00 0.00 0.00 54 1012.6
20260505005014 54 347 10.0 16.0 0.00 0.00 0.00 50 1012.4
20260505004536 54 355 9.0 17.0 0.00 0.00 0.00 47 1012.3
20260505004013 55 353 9.0 17.0 0.00 0.00 0.00 45 1012.2
20260505003514 55 12 5.0 16.0 0.00 0.00 0.00 44 1012.2
20260505003033 55 269 2.0 7.0 0.00 0.00 0.00 42 1012.2
20260505002516 55 347 2.0 7.0 0.00 0.00 0.00 42 1012.2
20260505002014 55 229 3.0 6.0 0.00 0.00 0.00 42 1012.1
20260505001534 55 103 2.0 13.0 0.00 0.00 0.00 42 1012.0
20260505001013 55 98 5.0 13.0 0.00 0.00 0.00 42 1011.9
20260505000516 56 133 7.0 13.0 0.00 0.00 0.00 41 1011.8
20260505000035 56 127 6.0 17.0 0.00 0.00 0.00 39 1011.7
20260504235515 56 86 7.0 17.0 0.00 0.00 0.00 39 1011.8
20260504235015 57 27 9.0 17.0 0.00 0.00 0.00 38 1011.6
20260504234538 57 6 7.0 19.0 0.00 0.00 0.00 37 1011.6
20260504234015 57 90 6.0 19.0 0.00 0.00 0.00 37 1011.6
20260504233515 58 37 10.0 18.0 0.00 0.00 0.00 33 1011.5
20260504233034 59 38 7.0 15.0 0.00 0.00 0.00 33 1011.5
20260504232516 59 2 10.0 15.0 0.00 0.00 0.00 33 1011.5
20260504232016 59 49 9.0 19.0 0.00 0.00 0.00 32 1011.3
20260504231536 59 51 10.0 21.0 0.00 0.00 0.00 33 1011.5
20260504231015 59 7 10.0 21.0 0.00 0.00 0.00 31 1011.1
20260504230515 60 45 13.0 22.0 0.00 0.00 0.00 31 1011.1
20260504230034 60 41 11.0 22.0 0.00 0.00 0.00 31 1010.5
20260504225516 61 8 12.0 22.0 0.00 0.00 0.00 30 1010.4
20260504225013 63 14 10.0 19.0 0.00 0.00 0.00 27 1010.3
20260504224531 63 352 3.0 10.0 0.00 0.00 0.00 26 1010.1
20260504224016 63 8 7.0 10.0 0.00 0.00 0.00 26 1010.1
20260504223514 63 14 4.0 8.0 0.00 0.00 0.00 26 1009.9
20260504223042 63 59 4.0 7.0 0.00 0.00 0.00 26 1009.9
20260504222518 63 59 5.0 7.0 0.00 0.00 0.00 26 1010.0
20260504222019 63 349 2.0 10.0 0.00 0.00 0.00 26 1010.0
20260504221536 63 74 6.0 11.0 0.00 0.00 0.00 25 1010.0
20260504221015 63 4 6.0 11.0 0.00 0.00 0.00 26 1010.0
20260504220515 63 1 6.0 11.0 0.00 0.00 0.00 25 1010.0
20260504220031 63 360 4.0 10.0 0.00 0.00 0.00 27 1010.0
20260504215514 63 352 6.0 10.0 0.00 0.00 0.00 26 1010.1
20260504215017 63 17 4.0 21.0 0.00 0.00 0.00 28 1010.1
20260504214534 63 89 2.0 21.0 0.00 0.00 0.00 26 1010.2
20260504214014 63 296 10.0 21.0 0.00 0.00 0.00 25 1010.3
20260504213514 63 1 6.0 12.0 0.00 0.00 0.00 26 1010.3
20260504213052 63 343 3.0 12.0 0.00 0.00 0.00 26 1010.5
20260504212520 63 8 6.0 16.0 0.00 0.00 0.00 26 1010.5
20260504212015 63 2 10.0 16.0 0.00 0.00 0.00 26 1010.4
20260504211537 63 39 6.0 16.0 0.00 0.00 0.00 26 1010.5
20260504211016 63 23 9.0 16.0 0.00 0.00 0.00 26 1010.4
20260504210513 64 351 12.0 18.0 0.00 0.00 0.00 26 1010.5
20260504210034 63 21 10.0 18.0 0.00 0.00 0.00 27 1010.6
20260504205513 63 10 10.0 15.0 0.00 0.00 0.00 26 1010.7
20260504205014 63 1 7.0 22.0 0.00 0.00 0.00 26 1010.5
20260504204534 63 34 12.0 24.0 0.00 0.00 0.00 26 1010.7
20260504204013 63 3 13.0 24.0 0.00 0.00 0.00 26 1010.6
20260504203514 65 4 13.0 24.0 0.00 0.00 0.00 25 1010.5
20260504203035 65 359 11.0 20.0 0.00 0.00 0.00 24 1010.4
20260504202516 65 360 14.0 21.0 0.00 0.00 0.00 24 1010.6
20260504202014 65 6 15.0 22.0 0.00 0.00 0.00 25 1010.6
20260504201534 65 21 13.0 22.0 0.00 0.00 0.00 25 1010.8
20260504201018 65 51 11.0 21.0 0.00 0.00 0.00 25 1010.8
20260504200516 65 8 13.0 24.0 0.00 0.00 0.00 25 1010.9
20260504200034 65 1 10.0 24.0 0.00 0.00 0.00 26 1010.8
20260504195514 65 356 14.0 24.0 0.00 0.00 0.00 25 1010.8
20260504195016 65 341 11.0 21.0 0.00 0.00 0.00 26 1010.9
20260504194542 64 29 9.0 20.0 0.00 0.00 0.00 25 1010.8
20260504194013 64 352 12.0 20.0 0.00 0.00 0.00 24 1010.9
20260504193517 64 32 10.0 20.0 0.00 0.00 0.00 25 1010.8
20260504193037 63 15 13.0 25.0 0.00 0.00 0.00 24 1010.8
20260504192516 63 355 13.0 27.0 0.00 0.00 0.00 25 1010.8
20260504192014 64 15 16.0 28.0 0.00 0.00 0.00 24 1010.8
20260504191533 64 347 18.0 28.0 0.00 0.00 0.00 26 1010.7
20260504191017 64 358 14.0 25.0 0.00 0.00 0.00 25 1010.7
20260504190514 64 4 19.0 25.0 0.00 0.00 0.00 23 1010.5
20260504190034 65 7 14.0 22.0 0.00 0.00 0.00 22 1010.6
20260504185520 66 356 14.0 26.0 0.00 0.00 0.00 22 1010.5
20260504185017 67 56 13.0 26.0 0.00 0.00 0.00 21 1010.4
20260504184533 72 4 8.0 21.0 0.00 0.00 0.00 16 1010.4
20260504184015 73 302 5.0 14.0 0.00 0.00 0.00 15 1010.5
20260504183514 73 227 6.0 14.0 0.00 0.00 0.00 16 1010.6
20260504183031 72 295 3.0 14.0 0.00 0.00 0.00 15 1010.6
20260504182514 73 229 9.0 14.0 0.00 0.00 0.00 16 1010.7
20260504182016 73 0 2.0 18.0 0.00 0.00 0.00 16 1010.6
20260504181533 74 217 8.0 18.0 0.00 0.00 0.00 16 1010.8
20260504181014 74 240 10.0 18.0 0.00 0.00 0.00 16 1010.6